FW1340 Weather Reports


time (UTC)temp
C
wind
direction
speed
KPH
gust
KPH
rain 1hr
cm
rain 24hr
cm
rain mn
cm
humidity
%
barometer
mb
20240418171543 20 346 0.0 0.0 0.00 0.00 0.00 74 1014.6
20240418170041 18 48 0.0 0.0 0.00 0.00 0.00 77 1014.5
20240418164537 18 17 0.0 0.0 0.00 0.00 0.00 79 1014.6
20240418163033 17 53 0.0 0.0 0.00 0.00 0.00 80 1014.6
20240418161531 17 360 0.0 0.0 0.00 0.00 0.00 83 1014.8
20240418160022 16 42 0.0 0.0 0.00 0.00 0.00 86 1014.8
20240418154523 15 360 0.0 0.0 0.00 0.00 0.00 88 1014.7
20240418153014 14 355 0.0 0.0 0.00 0.00 0.00 92 1014.7
20240418151513 13 70 0.0 0.0 0.00 0.00 0.00 93 1014.7
20240418150004 13 65 0.0 0.0 0.00 0.00 0.00 95 1014.6
20240418144501 12 57 0.0 0.0 0.00 0.00 0.00 95 1014.7
20240418143059 12 48 0.0 0.0 0.00 0.00 0.00 96 1014.7
20240418141608 11 62 0.0 0.0 0.00 0.00 0.00 96 1014.4
20240418140050 11 32 0.0 0.0 0.00 0.00 0.00 95 1014.3
20240418134555 10 355 0.0 0.0 0.00 0.00 0.00 94 1014.3
20240418133051 11 5 0.0 0.0 0.00 0.00 0.00 95 1014.1
20240418131543 11 5 0.0 0.0 0.00 0.00 0.00 94 1014.0
20240418130046 10 5 0.0 0.0 0.00 0.00 0.00 94 1014.0
20240418124542 11 5 0.0 0.0 0.00 0.00 0.00 94 1014.0
20240418123044 11 5 0.0 0.0 0.00 0.00 0.00 94 1013.9
20240418121542 11 124 0.0 0.0 0.00 0.00 0.00 94 1013.7
20240418120040 11 124 0.0 0.0 0.00 0.00 0.00 94 1013.8
20240418114538 11 124 0.0 0.0 0.00 0.00 0.00 94 1014.0
20240418113044 11 124 0.0 0.0 0.00 0.00 0.00 93 1014.0
20240418111535 11 124 0.0 0.0 0.00 0.00 0.00 93 1014.0
20240418110033 11 68 0.0 0.0 0.00 0.00 0.00 93 1014.0
20240418104532 11 68 0.0 0.0 0.00 0.00 0.00 92 1014.0
20240418103037 11 62 0.0 0.0 0.00 0.00 0.00 92 1014.0
20240418101528 12 62 0.0 0.0 0.00 0.00 0.00 92 1013.9
20240418100032 12 105 0.0 0.0 0.00 0.00 0.00 92 1014.0
20240418094545 12 105 0.0 0.0 0.00 0.00 0.00 92 1013.9
20240418093032 12 105 0.0 0.0 0.00 0.00 0.00 91 1014.0
20240418091521 12 105 0.0 0.0 0.00 0.00 0.00 91 1014.1
20240418090026 12 95 0.0 0.0 0.00 0.00 0.00 92 1014.1
20240418084518 12 61 0.0 0.0 0.00 0.00 0.00 92 1014.3
20240418083019 12 121 0.0 0.0 0.00 0.00 0.00 91 1014.3
20240418081530 12 121 0.0 0.0 0.00 0.00 0.00 89 1014.3
20240418080015 13 161 0.0 0.0 0.00 0.00 0.00 89 1014.3
20240418074513 13 142 0.0 0.0 0.00 0.00 0.00 89 1014.3
20240418073006 13 13 0.0 0.0 0.00 0.00 0.00 87 1014.4
20240418071506 14 13 0.0 0.0 0.00 0.00 0.00 87 1014.4
20240418070005 14 210 0.0 0.0 0.00 0.00 0.00 87 1014.4
20240418064502 15 210 0.0 0.0 0.00 0.00 0.00 87 1014.4
20240418063004 15 210 0.0 0.0 0.00 0.00 0.00 85 1014.5
20240418061505 15 210 0.0 0.0 0.00 0.00 0.00 85 1014.5
20240418060100 15 210 0.0 0.0 0.00 0.00 0.00 84 1014.5
20240418054603 15 210 0.0 0.0 0.00 0.00 0.00 82 1014.5
20240418053113 16 210 0.0 0.0 0.00 0.00 0.00 82 1014.5
20240418051614 17 279 0.0 0.0 0.00 0.00 0.00 79 1014.4
20240418050117 17 279 0.0 0.0 0.00 0.00 0.00 79 1014.4
20240418044603 17 279 0.0 0.0 0.00 0.00 0.00 78 1014.4
20240418043058 18 279 0.0 0.0 0.00 0.00 0.00 76 1014.2
20240418041608 18 279 0.0 0.0 0.00 0.00 0.00 75 1014.2
20240418040108 18 279 0.0 0.0 0.00 0.00 0.00 73 1014.0
20240418034555 20 279 0.0 0.0 0.00 0.00 0.00 72 1013.9
20240418033102 20 279 0.0 0.0 0.00 0.00 0.00 68 1013.7
20240418031559 21 279 0.0 0.0 0.00 0.00 0.00 67 1013.7
20240418030058 22 279 0.0 0.0 0.00 0.00 0.00 63 1013.7
20240418024554 22 279 0.0 0.0 0.00 0.00 0.00 57 1013.7
20240418023053 23 264 0.0 0.0 0.00 0.00 0.00 57 1013.7
20240418021552 23 246 0.0 0.0 0.00 0.00 0.00 54 1013.7
20240418020050 24 239 0.0 0.0 0.00 0.00 0.00 50 1013.9
20240418014550 25 292 0.0 0.0 0.00 0.00 0.00 50 1013.9
20240418013049 25 241 0.0 0.0 0.00 0.00 0.00 49 1014.1
20240418011547 25 335 0.0 0.0 0.00 0.00 0.00 50 1014.2
20240418010049 25 312 0.0 0.0 0.00 0.00 0.00 51 1014.2
20240418004546 25 311 0.0 0.0 0.00 0.00 0.00 49 1014.4
20240418003043 25 302 0.0 0.0 0.00 0.00 0.00 50 1014.5
20240418001549 25 309 0.0 0.0 0.00 0.00 0.00 50 1014.5
20240418000039 25 252 0.0 0.0 0.00 0.00 0.00 52 1014.7
20240417234538 26 327 0.0 0.0 0.00 0.00 0.00 48 1014.8
20240417233037 26 242 0.0 0.0 0.00 0.00 0.00 47 1014.9
20240417231536 26 242 0.0 0.0 0.00 0.00 0.00 46 1015.0
20240417230037 26 342 0.0 0.0 0.00 0.00 0.00 49 1015.0
20240417224534 25 309 0.0 0.0 0.00 0.00 0.00 51 1015.3
20240417223026 25 306 0.0 0.0 0.00 0.00 0.00 53 1015.4
20240417221524 25 329 0.0 0.0 0.00 0.00 0.00 53 1015.6
20240417220027 24 350 0.0 0.0 0.00 0.00 0.00 55 1015.7
20240417214517 24 235 0.0 0.0 0.00 0.00 0.00 56 1016.1
20240417213019 24 250 0.0 0.0 0.00 0.00 0.00 57 1016.2
20240417211513 23 355 0.0 0.0 0.00 0.00 0.00 59 1016.2
20240417210010 23 355 0.0 0.0 0.00 0.00 0.00 59 1016.4
20240417204510 23 321 0.0 0.0 0.00 0.00 0.00 61 1016.6
20240417203005 22 15 0.0 0.0 0.00 0.00 0.00 62 1016.8
20240417201600 22 316 0.0 0.0 0.00 0.00 0.00 62 1017.0
20240417201502 22 341 0.0 0.0 0.00 0.00 0.00 62 1016.9
20240417200116 21 15 0.0 0.0 0.00 0.00 0.00 63 1017.2
20240417194559 21 334 0.0 0.0 0.00 0.00 0.00 66 1017.3
20240417193048 20 327 0.0 0.0 0.00 0.00 0.00 68 1017.6
20240417191546 20 55 0.0 0.0 0.00 0.00 0.00 68 1017.8
20240417190045 20 57 0.0 0.0 0.00 0.00 0.00 71 1018.0
20240417184549 20 300 0.0 0.0 0.00 0.00 0.00 72 1018.2
20240417183039 19 33 0.0 0.0 0.00 0.00 0.00 72 1018.4
20240417181534 19 41 0.0 0.0 0.00 0.00 0.00 77 1018.5
20240417180029 18 40 0.0 0.0 0.00 0.00 0.00 80 1018.5
20240417174526 17 33 0.0 0.0 0.00 0.00 0.00 82 1018.5